Location: Beuvraignes
(49.6461°N, 2.7693°E)
Time: 06:04:00
(UTC+00:00)

Daily predictions for brighter satellites

Satellite Brightness Start Highest point End
(mag) Time Altitude Azimuth Time Altitude Azimuth Time Altitude Azimuth
NOSS 3-1 (A) 4.1 18:11:11 10° WSW 18:16:45 59° NW 18:23:21 10° NE
CSL-04 Rocket 3.8 18:12:04 10° SSE 18:17:23 59° ENE 18:22:49 10° N
Cosmos 1378 Rocket 4.4 18:14:34 10° NNW 18:18:49 57° W 18:23:01 10° S
SJ 16-02 1.6 18:14:54 10° SSW 18:19:17 76° WNW 18:23:41 10° NNE
Cosmos 2112 Rocket 4.3 18:14:34 10° NNW 18:19:47 73° WSW 18:24:58 10° SSE
Cosmos 1937 Rocket 3.7 18:18:04 10° S 18:23:06 49° ESE 18:28:07 10° NNE
NOSS 8 (E) 4.1 18:20:02 10° SW 18:23:14 72° SE 18:26:15 10° NE
Cosmos 1680 Rocket 4.2 18:18:07 10° NNW 18:23:16 60° WSW 18:28:24 10° S
Abrixas rocket 2.1 18:26:04 10° WSW 18:28:52 53° SSE 18:31:40 10° E
Okean 2 Rocket 4.1 18:26:43 10° SE 18:30:24 25° E 18:34:05 10° NNE
NOSS 2-2 (E) 3.8 18:28:43 10° S 18:31:51 32° ESE 18:35:22 10° ENE
Cosmos 1464 Rocket 4.5 18:26:36 10° SSE 18:32:04 36° E 18:37:38 10° NNE
SL-08 RB Rocket 4.4 18:29:05 10° SE 18:33:14 35° ENE 18:37:22 10° N
USA 116 3.5 18:31:18 10° NNE 18:34:40 58° ESE 18:38:23 10° S
Okean 2 3.7 18:31:00 10° NNW 18:35:12 76° W 18:39:21 10° S
Cosmos 1544 3.6 18:31:55 10° SSW 18:35:33 64° WNW 18:39:11 10° N
Okean-O 3.6 18:32:24 10° S 18:36:43 51° W 18:41:05 10° NNW
Cosmos 1300 Rocket 4.4 18:35:10 10° SSE 18:38:58 29° E 18:42:48 10° NNE
NOSS 2-2 (D) 3.9 18:37:26 10° S 18:40:32 30° ESE 18:43:57 10° ENE
CENTAUR R/B 3.6 18:36:46 10° NW 18:44:13 50° NE 18:51:59 12° ESE
USA 102 4.2 18:40:46 10° SE 18:44:42 18° ESE 18:45:15 17° ESE
Iridium 4 Rocket 3.8 18:40:05 10° S 18:45:04 77° W 18:50:34 10° N
GP-B 4.3 18:41:20 10° N 18:45:38 48° W 18:49:54 10° SSW
YAOGAN 1 3.4 18:41:48 10° S 18:46:04 56° W 18:50:20 10° NNW
Cosmos 2082 Rocket 4.3 18:44:06 10° N 18:46:06 12° NNE 18:48:06 10° NE
Cosmos 1975 3.1 18:42:32 10° SSW 18:46:37 75° WNW 18:50:43 10° N
Cosmos 1437 3.5 18:46:54 10° NNW 18:49:50 51° W 18:52:45 10° S
DMSP B5D1-3 4.5 18:45:00 10° NNE 18:50:07 79° ESE 18:55:13 10° SSW
H-2A R/B 2.0 18:45:13 10° SSE 18:50:11 87° ENE 18:55:19 10° NNW
Cosmos 1674 4.1 18:47:11 10° NNE 18:50:11 21° ENE 18:52:09 15° ESE
SJ-11-01 4.4 18:46:04 10° SSE 18:50:47 85° WSW 18:55:31 10° NNW
ATLAS 3B R/B 3.9 18:45:08 10° NW 18:50:56 29° NNE 18:56:54 10° ENE
CZ-4 R/B 3.0 18:47:30 10° S 18:51:29 41° W 18:55:29 10° NNW
Cosmos 1048 Rocket 4.5 18:48:16 10° NNW 18:53:22 44° ENE 18:58:02 12° SE
ISS -2.6 18:51:30 10° SSW 18:54:24 27° SE 18:56:08 18° E
Cosmos 1536 Rocket 4.1 18:50:39 10° N 18:54:49 38° ENE 18:58:58 10° SE
Cosmos 1842 4.4 18:51:48 10° NNW 18:55:32 46° W 18:59:15 10° SSW
USA 238 DEB 4.0 18:48:49 10° NW 18:55:56 65° NE 19:02:30 14° ESE
USA 238 4.0 18:48:56 10° NW 18:56:02 64° NE 19:02:35 14° ESE
In-Cosmos 22 4.1 18:52:10 10° N 18:57:24 57° ENE 19:02:39 10° SSE
Cosmos 1891 Rocket 4.5 18:53:25 10° S 18:59:25 59° E 19:05:22 10° NNE
ARGOS 3.1 18:58:22 10° SSE 19:03:44 87° ENE 19:09:09 10° NNW
Cosmos 1025 Rocket 3.1 19:00:32 10° N 19:04:53 61° ENE 19:09:14 10° SSE
CZ-2C R/B 3.1 19:00:06 10° NNE 19:05:18 40° E 19:10:32 10° SSE
Cosmos 1782 Rocket 4.2 19:02:29 10° SSW 19:06:51 61° WNW 19:11:17 10° N
Cosmos 1707 2.7 19:04:19 10° N 19:08:11 89° W 19:12:00 10° S
Cosmos 2151 Rocket 3.9 19:07:27 10° SSE 19:11:42 45° E 19:16:00 10° NNE
USA 186 1.6 19:13:03 13° SSE 19:15:43 79° ENE 19:18:59 10° N
CREW DRAGON DEMO-1 DEB 3.1 19:13:41 10° WNW 19:16:41 59° N 19:18:00 29° ENE
Ariane Rocket 2.9 19:13:37 10° SSE 19:18:40 76° ENE 19:23:46 10° NNW
SJ-6B 2.7 19:16:15 17° SSE 19:19:00 62° ENE 19:22:44 10° N
CZ-2C R/B 4.3 19:14:53 10° S 19:19:54 44° W 19:25:13 10° NNW
Cosmos 1844 4.3 19:15:47 10° SSE 19:20:47 32° ESE 19:25:45 10° NE
FREGAT/IRIS 2.2 19:20:39 43° SE 19:21:14 59° ENE 19:23:49 10° N
Nadezhda 4 Rocket 3.9 19:16:15 10° N 19:22:24 70° ENE 19:28:30 10° SSE
Cosmos 2263 Rocket 2.9 19:17:11 10° SW 19:22:39 55° NW 19:28:11 10° NNE
Cosmos 1072 Rocket 4.5 19:16:51 10° S 19:23:05 88° E 19:29:30 10° N
Cosmos 494 Rocket 4.3 19:17:59 10° NNW 19:23:07 50° ENE 19:26:06 24° SE
NOSS 3-2 (A) 4.0 19:16:15 10° NW 19:23:40 87° NE 19:30:19 18° SE
NOSS 2-2 (C) 3.0 19:21:27 10° SW 19:24:59 81° SE 19:29:00 10° NE
MOS 1 4.2 19:21:41 10° SSE 19:27:23 79° ENE 19:33:07 10° NNW
Lacrosse 4 Rocket 3.7 19:27:28 10° N 19:28:50 11° NNE 19:30:12 10° NE
Cosmos 1844 Rocket 2.9 19:24:08 10° S 19:29:23 45° ESE 19:34:42 10° NE
Cosmos 2034 Rocket 4.0 19:23:14 10° S 19:29:32 68° E 19:35:51 10° NNE
USA 102 4.0 19:24:06 10° SSE 19:29:51 31° SSW 19:29:58 31° SW
Cosmos 2298 Rocket 4.0 19:26:33 10° S 19:31:49 63° ESE 19:37:06 10° NNE
ATLAS CENTAUR R/B 4.1 19:33:54 10° NW 19:34:59 11° NNW 19:36:06 10° N
SPOT 3 Rocket 3.7 19:32:57 26° SE 19:35:40 52° ENE 19:40:40 10° N
USA 234 3.6 19:37:13 10° ENE 19:43:15 40° SE 19:49:20 10° SSW
Resurs 01 Rocket 2.0 19:42:54 37° ESE 19:43:55 43° ENE 19:48:09 10° N
SWAS 4.4 19:40:12 10° NNW 19:44:31 73° ENE 19:45:52 42° SE
Lacrosse 5 rocket 3.0 19:42:29 10° WNW 19:46:26 32° N 19:49:28 16° NE
MetOp-A 4.2 19:42:59 14° SSE 19:47:42 81° WSW 19:53:06 10° NNW
Cosmos 1833 Rocket 3.7 19:44:49 10° NNW 19:49:49 31° NE 19:51:25 26° ENE
Cosmos 372 Rocket 4.3 19:45:50 10° SSW 19:51:03 67° WNW 19:56:18 10° NNE
OBJECT-B 0.6 19:52:33 75° SSE 19:52:48 90° SW 19:56:04 10° NNW
Meteor 1-15 Rocket 4.1 19:48:21 10° S 19:53:57 75° E 19:59:41 10° NNE
Cosmos 1626 2.7 19:53:02 10° N 19:56:03 40° NE 19:56:03 40° NE
NOSS 3-2 (C) 4.0 19:51:04 10° NW 19:58:29 89° SW 20:03:03 31° SE
DMSP B5D2-2 4.0 19:53:45 10° NNE 19:59:05 90° WSW 20:04:23 10° SSW
ARIANE 5 R/B 3.2 20:01:02 38° ENE 20:01:02 38° ENE 20:04:58 10° N
Cosmos 2150 Rocket 4.1 19:56:08 10° SSW 20:01:32 84° WNW 20:07:01 10° NNE
Cosmos 1634 Rocket 4.0 19:59:03 28° SSE 20:02:10 55° E 20:08:11 10° NNE
Abrixas rocket 3.3 20:01:12 10° W 20:03:00 34° WSW 20:03:00 34° WSW
BREEZE-M TANK 3.1 19:57:02 10° WSW 20:04:16 46° S 20:04:37 44° SSE
Landsat 7 4.3 20:09:07 41° ENE 20:09:08 41° ENE 20:13:36 10° N
Cosmos 2285 Rocket 3.9 20:03:05 10° S 20:09:19 69° ESE 20:15:39 10° NNE
Cosmos 1125 Rocket 3.4 20:04:02 10° SSW 20:09:20 80° ESE 20:14:41 10° NNE
Okean 1 Rocket 2.9 20:08:19 42° S 20:09:48 82° E 20:14:20 10° NNE
Cosmos 1627 Rocket 4.5 20:10:09 10° N 20:16:36 87° E 20:19:38 34° S
ERS-1 Rocket 4.1 20:17:26 29° NE 20:17:26 29° NE 20:21:22 10° N
Resurs 1-3 4.1 20:18:56 39° SSW 20:20:19 58° W 20:24:41 10° NNW
Cosmos 1092 Rocket 4.1 20:15:46 10° NNW 20:21:54 71° W 20:25:37 25° S
Meteor 2-5 Rocket 3.8 20:17:30 10° NNW 20:23:08 76° W 20:25:27 37° S
Cosmos 1805 3.6 20:24:12 61° WSW 20:24:30 64° WNW 20:28:25 10° N
Cosmos 1674 4.1 20:22:17 10° NNW 20:25:50 36° W 20:27:00 28° SW
ATLAS 2AS CENTAUR R/B 3.1 20:20:01 10° S 20:27:33 49° ESE 20:35:02 10° NE
Cosmos 2026 Rocket 4.0 20:21:46 10° N 20:28:09 83° W 20:30:53 37° S
Cosmos 2098 Rocket 4.4 20:22:24 10° N 20:29:21 48° ENE 20:30:00 47° E
ISS -1.7 20:27:36 10° WSW 20:29:08 25° WSW 20:29:08 25° WSW
Cosmos 2082 Rocket 3.0 20:26:49 10° NNW 20:32:00 36° NE 20:32:16 35° NE
BREEZE-M DEB (TANK) 4.4 20:29:36 10° WSW 20:33:55 83° SSE 20:52:53 10° ENE
Cosmos 1733 4.2 20:36:19 42° N 20:36:19 42° N 20:39:01 10° N
CENTAUR R/B 3.4 20:27:31 10° NW 20:35:28 67° SW 20:39:10 38° SSE
Meteor 1-22 Rocket 4.2 20:34:25 48° S 20:36:10 83° E 20:42:15 10° NNE
Cosmos 1892 Rocket 3.9 20:34:05 10° N 20:37:39 59° N 20:37:39 59° N
CZ-2C R/B 3.8 20:34:14 10° N 20:38:41 72° WNW 20:38:59 69° WSW
ATLAS 3B R/B 2.8 20:36:01 10° NW 20:42:50 67° NE 20:44:10 56° E
COSMOS 2406 3.0 20:37:09 10° NNW 20:42:52 81° ENE 20:43:09 77° ESE
SPOT 1/Viking Rocket 3.6 20:43:21 65° NE 20:43:21 65° NE 20:48:10 10° N
SL-14 R/B 4.2 20:40:14 10° NNW 20:43:14 47° NW 20:43:14 47° NW
Cosmos 2279 Rocket 3.8 20:44:35 68° SE 20:45:07 72° E 20:51:23 10° NNE
CZ-2C R/B 4.1 20:40:31 10° N 20:45:33 38° WNW 20:50:39 10° SW
Meteor 1-24 Rocket 3.9 20:40:27 10° NNW 20:45:53 65° W 20:47:08 50° SSW
Cosmos 1269 Rocket 4.2 20:42:14 10° NNW 20:47:30 64° WSW 20:48:00 60° SW
Cosmos 2142 Rocket 4.4 20:47:07 58° S 20:48:27 86° E 20:54:44 10° N
Spot 2 Rocket 3.5 20:51:06 76° N 20:51:06 76° N 20:55:47 10° NNW
Exosat Rocket 4.2 20:50:18 10° SW 20:55:35 54° WNW 21:00:31 10° NNE
Terra 3.2 21:02:35 31° NNE 21:02:35 31° NNE 21:05:25 10° N
MetOp-B 4.4 21:01:41 57° WSW 21:02:04 59° W 21:07:22 10° NNW
Cosmos 2278 Rocket 4.1 21:07:57 18° NE 21:07:57 18° NE 21:09:27 10° NE
Cosmos 1844 4.5 20:59:13 10° SW 21:04:43 50° NW 21:10:13 10° NNE
Lacrosse 4 Rocket 3.2 21:04:35 10° NNW 21:06:37 26° N 21:06:37 26° N
Cosmos 909 Rocket 4.1 21:02:49 10° NW 21:09:27 67° NE 21:09:31 67° NE
Cosmos 1844 Rocket 4.0 21:08:15 10° WSW 21:13:24 37° NW 21:18:36 10° NNE
Resurs 01 Rocket 3.5 21:20:28 24° W 21:20:35 24° W 21:24:13 10° NW
Cosmos 2251 Rocket 4.1 21:15:45 10° NNW 21:19:53 53° N 21:19:53 53° N
Lacrosse 5 rocket 3.3 21:22:16 10° NW 21:25:05 30° NNW 21:25:05 30° NNW
USA 234 3.2 21:24:43 50° NE 21:26:39 81° NNW 21:33:12 10° WSW
SPOT 5 3.8 21:28:43 50° NNW 21:28:43 50° NNW 21:32:37 10° NNW
Cosmos 2266 Rocket 4.1 21:24:18 10° N 21:29:34 68° NNW 21:29:34 68° NNW
Cosmos 1833 Rocket 3.3 21:28:33 10° NW 21:33:07 51° WNW 21:33:07 51° WNW
Cosmos 1655 Rocket 4.4 21:35:43 10° NNW 21:41:39 57° W 21:41:39 57° W
NOSS 3-4 (A) 4.4 21:57:18 42° NNE 21:57:18 42° NNE 22:01:43 10° NE
NOSS 3-4 (C) 4.4 21:57:30 41° NNE 21:57:30 41° NNE 22:01:50 10° NE
ERS-1 Rocket 4.5 21:57:27 33° NW 21:57:27 33° NW 22:00:33 10° NNW
Cosmos 2082 Rocket 3.6 22:10:52 10° NW 22:14:06 32° WNW 22:14:06 32° WNW
ATLAS 2AS CENTAUR R/B 3.4 22:10:42 10° WSW 22:18:34 59° NW 22:26:17 10° NE
ATLAS 3B R/B 4.0 22:27:05 10° NW 22:31:25 31° W 22:31:25 31° W
Terra 4.3 22:41:29 17° NW 22:41:29 17° NW 22:42:56 10° NW
Cosmos 2278 Rocket 3.9 22:49:46 29° NNW 22:49:46 29° NNW 22:53:26 10° NNE
CZ-4C R/B 4.1 23:34:17 27° NNE 23:34:17 27° NNE 23:37:25 10° NE
